Location: Condor
(52.3263°N, 114.5541°W)
Time: 22:03:12
(UTC+00:00)

Oscar 19 - Pass Details

Date: 07 December 2023
Orbit: 771 x 789 km, 98.9° (Epoch: 04 March)

Event Time Altitude Azimuth Distance (km) Brightness Sun altitude
Rises 00:29:56 0° 203° (SSW) 3,235 14.7 -9.1°
Reaches altitude 10° 00:32:44 10° 219° (SW) 2,314 14.2 -9.5°
Maximum altitude 00:36:38 22° 269° (W) 1,651 13.3 -10.1°
Drops below altitude 10° 00:40:34 10° 319° (NW) 2,331 13.3 -10.6°
Sets 00:43:25 0° 335° (NNW) 3,266 13.9 -11.0°
